Terug naar catalogus

THOR ABLESTAR DEB

ActiefLEO
NORAD 323·DEBRIS·🇺🇸 United States

Gelanceerd Jun 29, 1961 vanaf Cape Canaveral Space Force Station

Loading…

Volgende Passages (komende 24 uur)

TLE

VersSource: Space-Track

Epoch: Sep 14, 2026, 07:34 UTC

1 00323U 61015CZ  26257.31571095  .00000594  00000-0  33018-3 0  9990
2 00323  66.8373 232.7658 0073310  16.3965 343.9473 14.16521822341092

Volg THOR ABLESTAR DEB in realtime met AllMySat

Download on the App Store